Regional Weather Roundup
Issued by NWS Green Bay, WI

Home | Current Version | Previous Version | Text Only | Print | Product List | Glossary On
Versions: 1 2 3 4 5 6 7 8 9 10 11 12 13 14 15 16 17 18 19 20 21 22 23 24 25 26 27 28 29 30 31 32 33 34 35 36 37 38 39 40 41 42 43 44 45 46 47 48 49 50
971
ASUS43 KGRB 190800
RWRGRB

NORTH-CENTRAL AND NORTHEAST WISCONSIN REGIONAL WEATHER ROUNDUP
NATIONAL WEATHER SERVICE GREEN BAY WI
200 AM CST FRI JAN 19 2018

WIZ005-009-010>012-018-019-190900-
NORTH CENTRAL WISCONSIN

CITY           SKY/WX    TMP DP  RH WIND       PRES   REMARKS
IRONWOOD       FAIR      27  22  81 SW7       29.66F
MANITOWISH WTR NOT AVBL
ARBOR VITAE    NOT AVBL
EAGLE RIVER    FAIR      22  22 100 SW6       29.67S
LAND O LAKES   NOT AVBL
RHINELANDER    FAIR      24  21  88 SW7       29.70S
PHILLIPS       FAIR      24  23  93 S6        29.69S
ANTIGO         NOT AVBL
TOMAHAWK       NOT AVBL
MERRILL        FAIR      16  15  95 CALM      29.73S
$$

WIZ013-073-190900-
NORTHEAST WISCONSIN

CITY           SKY/WX    TMP DP  RH WIND       PRES   REMARKS
IRON MOUNTAIN  FAIR      20  17  88 S5        29.68F
MARINETTE      FAIR      25  20  81 SW6       29.77F
$$

WIZ017-030-035>037-045-190900-
CENTRAL WISCONSIN

CITY           SKY/WX    TMP DP  RH WIND       PRES   REMARKS
MEDFORD        NOT AVBL
WAUSAU         FAIR      25  19  78 CALM      29.72F
MOSINEE        NOT AVBL
MARSHFIELD     FAIR      25  19  78 SW7       29.74S
WISC RAPIDS    FAIR      23  16  74 SW8       29.78S
STEVENS POINT  NOT AVBL
WAUPACA        NOT AVBL
SHAWANO        FAIR      26  19  77 CALM      29.77S
CLINTONVILLE   NOT AVBL
WAUTOMA        FAIR      23  17  78 CALM      29.81S
$$

WIZ038-039-048-051-190900-
FOX VALLEY

CITY           SKY/WX    TMP DP  RH WIND       PRES   REMARKS
NWS GREEN BAY  FAIR      22  16  78 S6        29.78F
APPLETON       NOT AVBL
OSHKOSH        FAIR      20  16  84 S8        29.80F
FOND DU LAC    FAIR      25  16  68 S9        29.81F
$$

WIZ022-050-052-190900-
EAST CENTRAL WISCONSIN

CITY           SKY/WX    TMP DP  RH WIND       PRES   REMARKS
EPHRAIM        NOT AVBL
WASHINGTON ISL NOT AVBL
STURGEON BAY   FAIR      27  20  75 SW10      29.77F
MANITOWOC      FAIR      29  20  69 W7        29.81S
SHEBOYGAN      FAIR      27  20  75 W12       29.81F
$$

LMZ563-521-522-541>543-190900-
LAKESHORE

STATION/POSITION TIME  TEMP    WIND        PRES    VSBY  WAVE
                       AIR SEA DIR/SP/G                  HT/PER
                 (UTC) (F)     (DEG/KT/KT) (MB)    (MI)  (FT/S)
SHEBOYGAN LKSHOR 0700   30     250/ 10/ 13 1010.7R
KEWAUNEE LKSHORE 0730   28     270/  4/  7 1008.4R
NORTHPORT PIER   0740   27     230/ 14/ 27 1007.8F
MENOMINEE LKSHOR 0724   24     210/  5/  9 1007.6
$$




USA.gov is the U.S. government's official web portal to all federal, state and local government web resources and services.